This demonstration page uses our WeatherBlox Daily Observations layout. Learn more.

40.92945, -100.16068

Hourly Observations for September 14, 2018

Temp ( °F °C ) Dew Point ( °F °C ) Humidity (%) Winds ( mph kmh ) Pressure ( in mb ) Visibility ( mi km ) Precip ( " mm )
12:15 am 00:15 Clear 73 22.7 66 19.1 80 80 SSE 12 19 29.85 1011 10 16.0934 0 0
12:35 am 00:35 Clear 72 22.3 66 19 82 82 SSE 12 19 29.85 1011 10 16.0934 0 0
12:55 am 00:55 Clear 72 22.1 66 19 83 83 SSE 9 15 29.85 1011 10 16.0934 0 0
1:15 am 01:15 Clear 72 22 66 19 83 83 SSE 10 17 29.85 1011 10 16.0934 0 0
1:35 am 01:35 Clear 71 21.7 66 19 85 85 SSE 12 19 29.85 1011 10 16.0934 0 0
1:55 am 01:55 Clear 71 21.5 66 19 86 86 SSE 15 24 29.85 1011 10 16.0934 0 0
2:15 am 02:15 Clear 70 21.2 66 18.8 86 86 SSE 13 20 29.85 1011 10 16.0934 0 0
2:35 am 02:35 Clear 70 20.9 66 18.8 88 88 SSE 10 17 29.85 1011 10 16.0934 0 0
2:55 am 02:55 Clear 69 20.7 66 19 90 90 SE 8 13 29.85 1011 10 16.0934 0 0
3:15 am 03:15 Partly Cloudy 69 20.6 66 19 91 91 SE 9 15 29.85 1011 10 16.0934 0 0
3:35 am 03:35 Mostly Cloudy 69 20.6 66 19.1 91 91 SE 8 13 29.85 1011 10 16.0934 0 0
3:55 am 03:55 Cloudy 69 20.6 67 19.3 92 92 SE 8 13 29.85 1011 10 16.0934 0 0
4:15 am 04:15 Cloudy 70 20.9 67 19.5 92 92 SE 9 15 29.85 1011 10 16.0934 0 0
4:35 am 04:35 Cloudy 70 20.9 67 19.5 92 92 SE 7 11 29.85 1011 10 16.0934 0 0
4:55 am 04:55 Cloudy 69 20.8 67 19.5 92 92 SE 9 15 29.88 1012 10 16.0934 0 0
5:15 am 05:15 Cloudy 69 20.7 67 19.5 93 93 SSE 10 17 29.85 1011 10 16.0934 0 0
5:35 am 05:35 Cloudy 69 20.5 67 19.3 93 93 SSE 9 15 29.85 1011 10 16.0934 0 0
5:55 am 05:55 Cloudy 69 20.5 67 19.3 93 93 SSE 13 20 29.85 1011 10 16.0934 0 0
6:15 am 06:15 Cloudy 69 20.5 67 19.3 93 93 SSE 12 19 29.85 1011 10 16.0934 0 0
6:35 am 06:35 Cloudy 69 20.5 67 19.3 93 93 SSE 12 19 29.88 1012 10 16.0934 0 0
6:55 am 06:55 Cloudy 69 20.5 67 19.3 93 93 SSE 12 19 29.88 1012 10 16.0934 0 0
7:15 am 07:15 Cloudy 69 20.5 67 19.2 92 92 SSE 10 17 29.88 1012 10 16.0934 0 0
7:35 am 07:35 Cloudy 69 20.5 67 19.2 92 92 SSE 12 19 29.88 1012 7 11.26538 0 0
7:55 am 07:55 Cloudy 69 20.6 67 19.2 92 92 SSE 12 19 29.88 1012 10 16.0934 0 0
8:15 am 08:15 Cloudy 69 20.7 67 19.2 91 91 SSE 12 19 29.88 1012 10 16.0934 0 0
8:35 am 08:35 Cloudy 70 21 67 19.2 90 90 SSE 9 15 29.91 1013 10 16.0934 0 0
8:55 am 08:55 Cloudy 70 21.3 67 19.2 88 88 S 8 13 29.91 1013 10 16.0934 0 0
9:15 am 09:15 Cloudy 71 21.9 67 19.4 86 86 SSE 9 15 29.91 1013 10 16.0934 0 0
9:35 am 09:35 Cloudy 73 22.9 67 19.5 81 81 S 10 17 29.91 1013 10 16.0934 0 0
9:55 am 09:55 Mostly Cloudy 74 23.5 67 19.5 78 78 S 9 15 29.88 1012 10 16.0934 0 0
10:15 am 10:15 Mostly Cloudy 75 24 67 19.6 76 76 S 12 19 29.88 1012 10 16.0934 0 0
10:35 am 10:35 Mostly Cloudy 75 24.1 67 19.4 75 75 S 12 19 29.88 1012 10 16.0934 0 0
10:55 am 10:55 Mostly Cloudy 77 25 67 19.6 72 72 S 10 17 29.88 1012 10 16.0934 0 0
11:15 am 11:15 Mostly Cloudy 78 25.5 67 19.7 70 70 SSE 13 20 29.88 1012 10 16.0934 0 0
11:35 am 11:35 Partly Cloudy 79 25.9 68 19.8 69 69 SSW 10 17 29.88 1012 10 16.0934 0 0
11:55 am 11:55 Sunny 80 26.5 67 19.7 66 66 S 9 15 29.88 1012 10 16.0934 0 0
12:15 pm 12:15 Sunny 81 27 68 19.8 65 65 SSE 10 17 29.85 1011 10 16.0934 0 0
12:35 pm 12:35 Sunny 82 28 68 20.1 62 62 SSE 13 20 29.85 1011 10 16.0934 0 0
12:55 pm 12:55 Sunny 83 28.1 68 20.2 62 62 SSE 12 19 29.85 1011 10 16.0934 0 0
1:15 pm 13:15 Sunny 83 28.6 68 20.1 60 60 SSE 15 24 29.85 1011 10 16.0934 0 0
1:35 pm 13:35 Sunny 84 29.1 69 20.4 59 59 SSE 14 22 29.85 1011 10 16.0934 0 0
1:55 pm 13:55 Sunny 85 29.6 69 20.3 57 57 SSE 14 22 29.83 1010 10 16.0934 0 0
2:15 pm 14:15 Sunny 86 30.2 69 20.3 55 55 SE 17 28 29.83 1010 10 16.0934 0 0
2:35 pm 14:35 Sunny 87 30.5 68 19.9 53 53 SSE 15 24 29.8 1009 10 16.0934 0 0
2:55 pm 14:55 Sunny 88 31 68 20 52 52 SSE 18 30 29.8 1009 10 16.0934 0 0
3:15 pm 15:15 Sunny 88 31.3 68 19.8 50 50 SSE 18 30 29.8 1009 10 16.0934 0 0
3:35 pm 15:35 Sunny 89 31.4 67 19.5 49 49 SSE 17 28 29.8 1009 10 16.0934 0 0
3:55 pm 15:55 Sunny 89 31.7 67 19.6 49 49 SSE 18 30 29.8 1009 10 16.0934 0 0
4:15 pm 16:15 Sunny 89 31.8 68 19.8 49 49 S 17 28 29.8 1009 10 16.0934 0 0
4:35 pm 16:35 Sunny 90 32 67 19.5 48 48 SSE 17 28 29.8 1009 10 16.0934 0 0
4:55 pm 16:55 Sunny 90 32 67 19.3 47 47 SSE 20 31 29.8 1009 10 16.0934 0 0
5:15 pm 17:15 Partly Cloudy 89 31.9 66 18.7 45 45 S 17 28 29.8 1009 10 16.0934 0 0
5:35 pm 17:35 Partly Cloudy 89 31.8 66 19.1 47 47 S 18 30 29.8 1009 10 16.0934 0 0
5:55 pm 17:55 Partly Cloudy 89 31.7 67 19.4 48 48 S 17 28 29.8 1009 10 16.0934 0 0
6:15 pm 18:15 Sunny 88 31.3 66 18.9 48 48 S 13 20 29.8 1009 10 16.0934 0 0
6:35 pm 18:35 Sunny 88 31 66 19.1 49 49 SSE 12 19 29.8 1009 10 16.0934 0 0
6:55 pm 18:55 Sunny 87 30.4 65 18.2 48 48 SSE 13 20 29.8 1009 10 16.0934 0 0
7:15 pm 19:15 Sunny 85 29.5 65 18.5 52 52 SSE 14 22 29.83 1010 10 16.0934 0 0
7:35 pm 19:35 Sunny 83 28.6 66 18.8 55 55 SSE 12 19 29.83 1010 10 16.0934 0 0
7:55 pm 19:55 Clear 82 27.6 66 19.1 60 60 SSE 13 20 29.85 1011 10 16.0934 0 0
8:15 pm 20:15 Clear 81 27.2 66 18.9 61 61 SE 10 17 29.85 1011 10 16.0934 0 0
8:35 pm 20:35 Clear 80 26.9 66 19.1 62 62 SE 10 17 29.88 1012 10 16.0934 0 0
8:55 pm 20:55 Clear 80 26.5 67 19.4 65 65 SE 14 22 29.88 1012 10 16.0934 0 0
9:15 pm 21:15 Clear 79 26 67 19.5 67 67 SSE 13 20 29.88 1012 10 16.0934 0 0
9:35 pm 21:35 Clear 78 25.6 67 19.6 70 70 SSE 14 22 29.91 1013 10 16.0934 0 0
9:55 pm 21:55 Clear 78 25.3 67 19.5 70 70 SSE 14 22 29.91 1013 10 16.0934 0 0
10:15 pm 22:15 Clear 78 25.3 67 19.3 69 69 SSE 15 24 29.91 1013 10 16.0934 0 0
10:35 pm 22:35 Clear 77 25 67 19.2 70 70 SSE 14 22 29.91 1013 10 16.0934 0 0
10:55 pm 22:55 Clear 76 24.7 66 19.1 71 71 SSE 14 22 29.91 1013 10 16.0934 0 0
11:15 pm 23:15 Clear 76 24.7 66 19 71 71 SSE 15 24 29.91 1013 10 16.0934 0 0
11:35 pm 23:35 Clear 76 24.4 66 18.8 71 71 SSE 13 20 29.91 1013 10 16.0934 0 0
11:55 pm 23:55 Clear 75 24.1 66 18.8 72 72 SSE 13 20 29.91 1013 10 16.0934 0 0

Powered by AerisWeather